FW8327 Weather Reports


time (UTC)temp
C
wind
direction
speed
KPH
gust
KPH
rain 1hr
cm
rain 24hr
cm
rain mn
cm
humidity
%
barometer
mb
20260906073445 18 109 0.0 0.0 0.00 0.00 0.00 96 1014.2
20260906072941 18 117 0.0 0.0 0.00 0.00 0.00 95 1014.2
20260906072436 19 82 0.0 0.0 0.00 0.00 0.00 94 1014.3
20260906071932 19 113 0.0 0.0 0.00 0.00 0.00 93 1014.3
20260906071427 19 131 0.0 0.0 0.00 0.00 0.00 94 1014.3
20260906070923 19 112 0.0 0.0 0.00 0.00 0.00 94 1014.4
20260906070413 19 78 0.0 0.0 0.00 0.00 0.00 93 1014.4
20260906065908 19 54 0.0 0.0 0.00 0.00 0.00 94 1014.2
20260906065403 20 91 0.0 0.0 0.00 0.00 0.00 94 1014.3
20260906064859 20 57 0.0 0.0 0.00 0.00 0.00 95 1014.4
20260906064354 20 46 0.0 0.0 0.00 0.00 0.00 95 1014.4
20260906063849 20 39 0.0 0.0 0.00 0.00 0.00 96 1014.3
20260906063344 20 108 0.0 0.0 0.00 0.00 0.00 96 1014.3
20260906062839 20 111 0.0 0.0 0.00 0.00 0.00 96 1014.2
20260906062338 20 114 0.0 0.0 0.00 0.00 0.00 97 1014.2
20260906061834 20 83 0.0 0.0 0.00 0.00 0.00 97 1014.2
20260906061330 20 53 0.0 0.0 0.00 0.00 0.00 97 1014.3
20260906060824 20 48 0.0 0.0 0.00 0.00 0.00 97 1014.1
20260906060323 20 80 0.0 0.0 0.00 0.00 0.00 97 1014.1
20260906055818 20 118 0.0 0.0 0.00 0.00 0.00 97 1014.0
20260906055314 20 50 0.0 0.0 0.00 0.00 0.00 98 1014.2
20260906054809 20 44 0.0 0.0 0.00 0.00 0.00 98 1013.9
20260906054304 20 45 0.0 0.0 0.00 0.00 0.00 99 1013.7
20260906053800 20 40 0.0 0.0 0.00 0.00 0.00 99 1013.9
20260906053255 20 51 0.0 0.0 0.00 0.00 0.00 99 1013.8
20260906052750 20 31 0.0 0.0 0.00 0.00 0.00 99 1013.9
20260906052247 20 37 0.0 0.0 0.00 0.00 0.00 99 1013.7
20260906051744 21 89 0.0 0.0 0.00 0.00 0.00 99 1013.8
20260906051244 21 92 0.0 0.0 0.00 0.00 0.00 99 1013.6
20260906050738 21 139 0.0 0.0 0.00 0.00 0.00 99 1013.9
20260906050234 21 51 0.0 0.0 0.00 0.00 0.00 99 1013.8
20260906045732 21 110 0.0 0.0 0.00 0.00 0.00 99 1014.0
20260906045227 21 71 0.0 0.0 0.00 0.00 0.00 99 1013.6
20260906044723 21 41 0.0 1.6 0.00 0.00 0.00 99 1013.6
20260906044218 21 52 0.0 0.0 0.00 0.00 0.00 99 1013.5
20260906043714 21 85 0.0 0.0 0.00 0.00 0.00 99 1013.5
20260906043210 21 53 0.0 0.0 0.00 0.00 0.00 99 1013.6
20260906042709 21 32 1.6 3.2 0.00 0.00 0.00 99 1013.7
20260906042203 21 70 0.0 0.0 0.00 0.00 0.00 99 1013.6
20260906041658 21 130 0.0 0.0 0.00 0.00 0.00 99 1013.7
20260906041154 21 52 1.6 1.6 0.00 0.00 0.00 99 1013.5
20260906040649 21 87 0.0 0.0 0.00 0.00 0.00 99 1013.7
20260906040145 21 30 0.0 1.6 0.00 0.00 0.00 99 1013.7
20260906035644 22 79 1.6 3.2 0.00 0.00 0.00 99 1013.5
20260906035140 22 30 0.0 0.0 0.00 0.00 0.00 99 1013.8
20260906034635 22 84 0.0 0.0 0.00 0.00 0.00 99 1013.8
20260906034129 22 29 1.6 3.2 0.00 0.00 0.00 99 1013.7
20260906033625 22 33 0.0 0.0 0.00 0.00 0.00 99 1013.6
20260906033120 22 37 1.6 3.2 0.00 0.00 0.00 99 1013.7
20260906032617 22 37 3.2 3.2 0.00 0.00 0.00 98 1013.8
20260906032117 22 28 1.6 3.2 0.00 0.00 0.00 98 1013.7
20260906031612 22 51 0.0 0.0 0.00 0.00 0.00 98 1013.6
20260906031108 22 42 0.0 0.0 0.00 0.00 0.00 98 1013.5
20260906030606 22 85 0.0 0.0 0.00 0.00 0.00 98 1013.4
20260906030101 22 136 0.0 0.0 0.00 0.00 0.00 97 1013.2
20260906025556 22 102 0.0 0.0 0.00 0.00 0.00 97 1013.0
20260906025054 22 89 0.0 0.0 0.00 0.00 0.00 97 1013.2
20260906024549 22 130 0.0 0.0 0.00 0.00 0.00 96 1013.0
20260906024049 22 169 0.0 0.0 0.00 0.00 0.00 97 1013.0
20260906023546 23 154 0.0 0.0 0.00 0.00 0.00 97 1013.0
20260906023040 23 151 0.0 0.0 0.00 0.00 0.00 97 1012.9
20260906022536 23 98 0.0 1.6 0.00 0.00 0.00 97 1012.7
20260906022031 23 57 0.0 1.6 0.00 0.00 0.00 97 1012.8
20260906021526 23 114 0.0 1.6 0.00 0.00 0.00 98 1012.7
20260906021020 23 143 0.0 0.0 0.00 0.00 0.00 98 1012.6
20260906020520 23 36 1.6 3.2 0.00 0.00 0.00 98 1012.8
20260906020019 23 39 0.0 0.0 0.00 0.00 0.00 99 1012.6
20260906015518 23 144 0.0 0.0 0.00 0.00 0.00 99 1012.5
20260906015018 23 33 0.0 0.0 0.00 0.00 0.00 99 1012.5
20260906014513 23 89 0.0 0.0 0.00 0.00 0.00 99 1012.5
20260906014009 23 30 0.0 0.0 0.00 0.00 0.00 99 1012.3
20260906013504 23 148 0.0 0.0 0.00 0.00 0.00 98 1012.1
20260906012959 23 168 0.0 0.0 0.00 0.00 0.00 98 1012.1
20260906012454 23 61 1.6 3.2 0.00 0.00 0.00 97 1012.2
20260906011954 23 100 0.0 0.0 0.00 0.00 0.00 98 1012.1
20260906011449 23 40 0.0 1.6 0.00 0.00 0.00 99 1012.0
20260906010944 24 98 0.0 0.0 0.00 0.00 0.00 99 1011.9
20260906010439 24 141 0.0 0.0 0.00 0.00 0.00 99 1011.8
20260906005935 24 61 0.0 0.0 0.00 0.00 0.00 99 1011.2
20260906005430 24 41 0.0 0.0 0.00 0.00 0.00 99 1011.6
20260906004928 23 12 1.6 3.2 0.00 0.00 0.00 99 1011.4
20260906004423 23 191 0.0 0.0 0.00 0.00 0.00 99 1011.2
20260906003919 23 155 0.0 0.0 0.00 0.00 0.00 99 1011.4
20260906003414 23 155 0.0 0.0 0.00 0.00 0.00 99 1011.4
20260906002909 23 175 0.0 0.0 0.00 0.00 0.00 99 1011.5
20260906002409 23 175 0.0 0.0 0.00 0.00 0.00 99 1011.1
20260906001904 23 175 0.0 0.0 0.00 0.00 0.00 99 1011.2
20260906001400 23 175 0.0 0.0 0.00 0.00 0.00 99 1011.0
20260906000859 23 175 0.0 0.0 0.00 0.00 0.00 99 1011.0
20260906000356 24 176 0.0 0.0 0.00 0.00 0.00 99 1011.1
20260905235849 24 176 0.0 0.0 0.00 0.00 0.00 98 1011.3
20260905235343 25 175 0.0 0.0 0.00 0.00 0.00 98 1011.3
20260905234838 25 145 0.0 0.0 0.00 0.00 0.00 97 1011.4
20260905234334 25 145 0.0 0.0 0.00 0.00 0.00 97 1011.3
20260905233829 25 145 0.0 0.0 0.00 0.00 0.00 96 1011.2
20260905233324 25 145 0.0 0.0 0.00 0.00 0.00 96 1011.3
20260905232823 26 145 0.0 0.0 0.00 0.00 0.00 95 1011.1
20260905232319 25 145 0.0 0.0 0.00 0.00 0.00 95 1011.2
20260905231815 25 145 0.0 0.0 0.00 0.00 0.00 95 1011.2
20260905231310 25 145 0.0 0.0 0.00 0.00 0.00 95 1011.3
20260905230806 24 135 0.0 0.0 0.00 0.00 0.00 97 1011.2
20260905230304 24 123 0.0 0.0 0.00 0.00 0.00 99 1010.8
20260905225803 24 121 0.0 0.0 0.00 0.00 0.00 99 1011.1
20260905225258 23 133 0.0 0.0 0.00 0.00 0.00 99 1010.8
20260905224758 23 5 0.0 0.0 0.00 0.00 0.00 99 1010.9
20260905224254 23 350 0.0 0.0 0.00 0.00 0.00 99 1010.8
20260905223749 23 323 0.0 0.0 0.00 0.00 0.00 99 1010.6
20260905223246 22 183 0.0 0.0 0.00 0.00 0.00 99 1010.6
20260905222741 22 98 0.0 0.0 0.00 0.00 0.00 99 1010.9
20260905222240 22 301 0.0 0.0 0.00 0.00 0.00 99 1010.9
20260905221736 22 316 0.0 0.0 0.00 0.00 0.00 99 1011.2
20260905221233 22 166 0.0 0.0 0.00 0.00 0.00 99 1011.1
20260905220729 21 135 0.0 0.0 0.00 0.00 0.00 98 1010.7
20260905220225 20 354 0.0 0.0 0.00 0.00 0.00 98 1011.1
20260905215724 21 326 0.0 0.0 0.00 0.00 0.00 96 1011.0
20260905215220 22 184 1.6 3.2 0.00 0.00 0.00 97 1012.1
20260905214715 26 20 6.4 11.3 0.00 0.00 0.00 87 1011.2
20260905214211 30 47 1.6 4.8 0.00 0.00 0.00 74 1010.7
20260905213706 31 227 0.0 0.0 0.00 0.00 0.00 68 1010.5
20260905213202 32 162 0.0 0.0 0.00 0.00 0.00 72 1010.4
20260905212657 32 248 0.0 0.0 0.00 0.00 0.00 71 1009.9
20260905212156 32 280 0.0 0.0 0.00 0.00 0.00 74 1010.2
20260905211650 31 263 0.0 0.0 0.00 0.00 0.00 74 1010.6
20260905211146 31 227 0.0 0.0 0.00 0.00 0.00 75 1010.6
20260905210643 31 290 1.6 3.2 0.00 0.00 0.00 73 1010.4
20260905210137 31 243 0.0 0.0 0.00 0.00 0.00 74 1010.3
20260905205636 31 266 0.0 0.0 0.00 0.00 0.00 75 1010.5
20260905205136 31 259 1.6 1.6 0.00 0.00 0.00 75 1010.4
20260905204630 31 267 0.0 1.6 0.00 0.00 0.00 75 1010.5
20260905204125 31 290 0.0 0.0 0.00 0.00 0.00 74 1010.4
20260905203625 31 252 0.0 0.0 0.00 0.00 0.00 75 1010.4
20260905203120 31 249 0.0 0.0 0.00 0.00 0.00 77 1010.6
20260905202616 30 248 0.0 0.0 0.00 0.00 0.00 79 1010.9
20260905202111 29 221 0.0 0.0 0.00 0.00 0.00 81 1010.9
20260905201607 30 285 0.0 1.6 0.00 0.00 0.00 78 1011.0
20260905201106 31 275 0.0 1.6 0.00 0.00 0.00 76 1010.8
20260905200602 31 263 1.6 3.2 0.00 0.00 0.00 75 1010.9
20260905195555 31 288 0.0 0.0 0.00 0.00 0.00 75 1011.0
20260905195052 31 283 1.6 3.2 0.00 0.00 0.00 75 1011.1
20260905194551 31 280 1.6 3.2 0.00 0.00 0.00 73 1011.2
20260905194050 31 279 1.6 1.6 0.00 0.00 0.00 73 1011.0
20260905193545 31 270 0.0 1.6 0.00 0.00 0.00 75 1011.2
20260905193041 30 254 0.0 0.0 0.00 0.00 0.00 77 1011.2
20260905192536 30 269 0.0 0.0 0.00 0.00 0.00 74 1011.3
20260905192033 31 283 3.2 3.2 0.00 0.00 0.00 71 1011.1
20260905191530 31 260 0.0 0.0 0.00 0.00 0.00 71 1011.2
20260905191030 31 240 0.0 0.0 0.00 0.00 0.00 72 1011.3
20260905190528 31 246 0.0 0.0 0.00 0.00 0.00 75 1011.4
20260905190022 31 273 3.2 3.2 0.00 0.00 0.00 72 1011.4
20260905185522 31 282 1.6 3.2 0.00 0.00 0.00 72 1011.5
20260905185021 31 253 0.0 0.0 0.00 0.00 0.00 74 1011.5
20260905184520 31 268 3.2 3.2 0.00 0.00 0.00 71 1011.6
20260905184020 31 205 0.0 0.0 0.00 0.00 0.00 72 1011.7
20260905183519 31 261 0.0 1.6 0.00 0.00 0.00 71 1011.9
20260905183015 31 246 1.6 1.6 0.00 0.00 0.00 70 1011.7
20260905182509 31 277 1.6 3.2 0.00 0.00 0.00 70 1011.5
20260905182004 31 217 0.0 0.0 0.00 0.00 0.00 69 1011.9
20260905181459 31 202 0.0 0.0 0.00 0.00 0.00 70 1012.0
20260905180957 30 263 1.6 3.2 0.00 0.00 0.00 70 1011.9
20260905180452 31 268 3.2 3.2 0.00 0.00 0.00 69 1012.1
20260905175948 31 233 0.0 0.0 0.00 0.00 0.00 71 1012.0
20260905175447 30 276 3.2 6.4 0.00 0.00 0.00 70 1012.0
20260905174943 30 252 0.0 0.0 0.00 0.00 0.00 71 1012.0
20260905174438 30 157 0.0 0.0 0.00 0.00 0.00 70 1012.2
20260905173934 30 261 0.0 0.0 0.00 0.00 0.00 70 1012.2
20260905173430 31 170 0.0 0.0 0.00 0.00 0.00 68 1012.4
20260905172925 30 162 0.0 0.0 0.00 0.00 0.00 69 1012.3
20260905172422 30 252 0.0 0.0 0.00 0.00 0.00 69 1012.6
20260905171919 30 163 0.0 0.0 0.00 0.00 0.00 70 1012.4
20260905171416 30 153 0.0 0.0 0.00 0.00 0.00 70 1012.5
20260905170911 30 216 0.0 0.0 0.00 0.00 0.00 72 1012.6
20260905170407 30 239 0.0 1.6 0.00 0.00 0.00 69 1012.9
20260905165906 29 160 0.0 0.0 0.00 0.00 0.00 72 1012.9
20260905165401 28 188 0.0 0.0 0.00 0.00 0.00 72 1013.0
20260905164856 28 176 0.0 0.0 0.00 0.00 0.00 71 1013.1
20260905164351 29 163 0.0 0.0 0.00 0.00 0.00 70 1013.2
20260905163846 28 189 0.0 0.0 0.00 0.00 0.00 72 1013.1
20260905163343 28 191 0.0 0.0 0.00 0.00 0.00 75 1013.2
20260905162839 27 154 0.0 0.0 0.00 0.00 0.00 75 1013.0
20260905162338 28 167 0.0 0.0 0.00 0.00 0.00 73 1013.2
20260905161833 28 169 0.0 0.0 0.00 0.00 0.00 75 1013.4
20260905161332 28 160 0.0 0.0 0.00 0.00 0.00 75 1013.0
20260905160830 28 148 0.0 0.0 0.00 0.00 0.00 75 1013.0
20260905160325 28 148 0.0 0.0 0.00 0.00 0.00 73 1013.1
20260905155819 28 157 0.0 0.0 0.00 0.00 0.00 73 1013.0
20260905155313 28 177 0.0 0.0 0.00 0.00 0.00 74 1013.1
20260905154807 27 134 0.0 0.0 0.00 0.00 0.00 75 1013.0
20260905154303 28 153 0.0 0.0 0.00 0.00 0.00 73 1013.0
20260905153758 27 182 0.0 0.0 0.00 0.00 0.00 75 1012.9
20260905153254 28 151 0.0 0.0 0.00 0.00 0.00 74 1013.0
20260905152748 27 159 0.0 0.0 0.00 0.00 0.00 74 1013.2
20260905152243 27 152 0.0 0.0 0.00 0.00 0.00 75 1013.0
20260905151742 27 77 0.0 1.6 0.00 0.00 0.00 75 1013.0
20260905151239 26 187 0.0 1.6 0.00 0.00 0.00 78 1013.0
20260905150738 26 164 0.0 1.6 0.00 0.00 0.00 78 1013.2
20260905150238 27 153 0.0 1.6 0.00 0.00 0.00 76 1013.5
20260905145735 27 172 0.0 0.0 0.00 0.00 0.00 76 1012.9
20260905145231 26 154 0.0 0.0 0.00 0.00 0.00 78 1013.0
20260905144729 26 142 0.0 1.6 0.00 0.00 0.00 78 1013.0
20260905144225 26 164 0.0 0.0 0.00 0.00 0.00 78 1013.1
20260905143724 25 162 1.6 4.8 0.00 0.00 0.00 79 1012.9
20260905143223 25 147 0.0 0.0 0.00 0.00 0.00 82 1012.9
20260905142722 25 142 0.0 0.0 0.00 0.00 0.00 81 1012.6
20260905142216 25 145 0.0 1.6 0.00 0.00 0.00 82 1012.9
20260905141712 25 186 1.6 3.2 0.00 0.00 0.00 82 1012.8
20260905141208 25 160 0.0 1.6 0.00 0.00 0.00 81 1013.1
20260905140702 24 125 1.6 4.8 0.00 0.00 0.00 83 1012.8
20260905140157 23 110 0.0 1.6 0.00 0.00 0.00 84 1013.0
20260905135651 23 169 4.8 9.7 0.00 0.00 0.00 84 1013.0
20260905135147 23 155 0.0 0.0 0.00 0.00 0.00 85 1012.7
20260905134647 23 133 0.0 1.6 0.00 0.00 0.00 86 1012.8
20260905134145 23 170 3.2 3.2 0.00 0.00 0.00 85 1012.9
20260905133641 23 157 0.0 0.0 0.00 0.00 0.00 86 1013.1
20260905133136 23 154 0.0 3.2 0.00 0.00 0.00 86 1013.1
20260905132636 23 183 0.0 0.0 0.00 0.00 0.00 86 1013.5
20260905132131 23 139 0.0 0.0 0.00 0.00 0.00 88 1013.4
20260905131626 22 166 0.0 1.6 0.00 0.00 0.00 88 1013.4
20260905131120 23 154 0.0 0.0 0.00 0.00 0.00 87 1013.4
20260905130615 22 140 0.0 0.0 0.00 0.00 0.00 88 1013.1
20260905130114 22 179 0.0 0.0 0.00 0.00 0.00 89 1013.5
20260905125609 22 158 1.6 4.8 0.00 0.00 0.00 89 1013.4
20260905125104 22 128 0.0 0.0 0.00 0.00 0.00 90 1013.5
20260905124602 22 141 0.0 0.0 0.00 0.00 0.00 90 1013.4
20260905124057 22 172 0.0 0.0 0.00 0.00 0.00 91 1013.1
20260905123552 22 152 0.0 0.0 0.00 0.00 0.00 92 1013.4
20260905123049 21 150 0.0 0.0 0.00 0.00 0.00 92 1013.0
20260905122549 21 151 0.0 0.0 0.00 0.00 0.00 91 1013.2
20260905122043 21 148 0.0 0.0 0.00 0.00 0.00 92 1013.4
20260905121537 21 142 0.0 0.0 0.00 0.00 0.00 93 1013.1
20260905121032 21 150 0.0 0.0 0.00 0.00 0.00 93 1013.0
20260905120527 21 153 0.0 0.0 0.00 0.00 0.00 94 1013.0
20260905120022 21 165 0.0 0.0 0.00 0.00 0.00 95 1013.0
20260905115521 21 165 0.0 0.0 0.00 0.00 0.00 95 1012.9
20260905115016 21 154 0.0 0.0 0.00 0.00 0.00 95 1012.9
20260905114515 21 161 0.0 0.0 0.00 0.00 0.00 95 1012.9
20260905114015 21 156 0.0 0.0 0.00 0.00 0.00 95 1013.2
20260905113510 21 118 0.0 0.0 0.00 0.00 0.00 94 1013.0
20260905113005 21 146 0.0 0.0 0.00 0.00 0.00 94 1012.9
20260905112500 21 83 0.0 0.0 0.00 0.00 0.00 94 1013.1
20260905111955 21 121 0.0 0.0 0.00 0.00 0.00 95 1012.9
20260905111449 21 139 0.0 0.0 0.00 0.00 0.00 94 1012.9
20260905110943 21 121 1.6 1.6 0.00 0.00 0.00 94 1012.7
20260905110442 21 125 0.0 1.6 0.00 0.00 0.00 94 1012.8
20260905105937 21 119 0.0 0.0 0.00 0.00 0.00 94 1013.0
20260905105432 21 106 1.6 3.2 0.00 0.00 0.00 94 1012.8
20260905104931 21 98 0.0 1.6 0.00 0.00 0.00 94 1012.7
20260905104427 21 112 1.6 3.2 0.00 0.00 0.00 94 1012.9
20260905103921 21 92 3.2 4.8 0.00 0.00 0.00 93 1013.0
20260905103418 21 148 3.2 4.8 0.00 0.00 0.00 93 1012.8
20260905102913 21 112 0.0 1.6 0.00 0.00 0.00 93 1012.7
20260905102410 21 103 1.6 3.2 0.00 0.00 0.00 93 1013.1
20260905101910 21 108 4.8 4.8 0.00 0.00 0.00 93 1012.9
20260905101408 22 88 3.2 4.8 0.00 0.00 0.00 93 1012.9
20260905100903 23 145 0.0 0.0 0.00 0.00 0.00 96 1012.8
20260905100359 23 135 1.6 3.2 0.00 0.00 0.00 99 1012.5
20260905095858 23 147 0.0 0.0 0.00 0.00 0.00 99 1012.1
20260905095352 23 148 0.0 0.0 0.00 0.00 0.00 99 1011.9
20260905094847 22 148 0.0 0.0 0.00 0.00 0.00 99 1011.7
20260905094343 22 148 0.0 0.0 0.00 0.00 0.00 99 1012.0
20260905093841 22 148 0.0 0.0 0.00 0.00 0.00 99 1011.7
20260905093337 22 149 0.0 0.0 0.00 0.00 0.00 99 1012.0
20260905092833 22 149 0.0 0.0 0.00 0.00 0.00 99 1012.0
20260905092333 22 140 0.0 0.0 0.00 0.00 0.00 99 1011.9
20260905091828 22 140 0.0 0.0 0.00 0.00 0.00 99 1011.9
20260905091328 22 158 0.0 0.0 0.00 0.00 0.00 99 1012.1
20260905090827 22 164 0.0 0.0 0.00 0.00 0.00 99 1011.5
20260905090323 23 164 0.0 0.0 0.00 0.00 0.00 99 1011.7
20260905085822 23 164 0.0 0.0 0.00 0.00 0.00 99 1011.8
20260905085316 23 164 0.0 0.0 0.00 0.00 0.00 98 1011.9
20260905084812 23 164 0.0 0.0 0.00 0.00 0.00 97 1011.7
20260905084311 23 164 0.0 0.0 0.00 0.00 0.00 97 1011.6
20260905083807 23 164 0.0 0.0 0.00 0.00 0.00 97 1011.7
20260905083303 23 163 0.0 0.0 0.00 0.00 0.00 97 1011.7
20260905082757 23 163 0.0 0.0 0.00 0.00 0.00 97 1011.6
20260905082253 23 163 0.0 0.0 0.00 0.00 0.00 97 1012.0
20260905081748 23 163 0.0 0.0 0.00 0.00 0.00 98 1011.6
20260905081243 23 163 0.0 0.0 0.00 0.00 0.00 98 1011.8
20260905080742 23 163 0.0 0.0 0.00 0.00 0.00 98 1011.7
20260905080237 23 183 0.0 0.0 0.00 0.00 0.00 98 1011.8
20260905075736 23 183 0.0 0.0 0.00 0.00 0.00 98 1011.6
20260905075235 23 183 0.0 0.0 0.00 0.00 0.00 97 1011.6
20260905074734 23 183 0.0 0.0 0.00 0.00 0.00 97 1011.6
20260905074230 24 183 0.0 0.0 0.00 0.00 0.00 96 1011.4